TimeCST,TemperatureF,Dew PointF,Humidity,Sea Level PressureIn,VisibilityMPH,Wind Direction,Wind SpeedMPH,Gust SpeedMPH,PrecipitationIn,Events,Conditions,WindDirDegrees,DateUTC
12:25 AM,1.4,-4.0,78,30.09,6.0,Calm,Calm,-,0.00,Snow,Light Snow,0,2013-02-02 06:25:00
12:28 AM,1.4,-4.0,78,30.09,6.0,Calm,Calm,-,0.00,Snow,Light Snow,0,2013-02-02 06:28:00
12:56 AM,1.0,-4.0,79,30.14,2.5,Calm,Calm,-,0.00,Snow,Light Snow,0,2013-02-02 06:56:00
1:07 AM,1.4,-4.0,78,30.08,6.0,Calm,Calm,-,0.00,Snow,Light Snow,0,2013-02-02 07:07:00
1:56 AM,1.0,-4.0,79,30.14,10.0,Calm,Calm,-,0.00,,Overcast,0,2013-02-02 07:56:00
2:39 AM,1.4,-4.0,78,30.07,5.0,Calm,Calm,-,0.00,Snow,Light Snow,0,2013-02-02 08:39:00
2:47 AM,1.4,-4.0,78,30.07,3.0,Calm,Calm,-,0.00,Snow,Light Snow,0,2013-02-02 08:47:00
2:56 AM,1.4,-4.0,78,30.07,1.8,Calm,Calm,-,N/A,Snow,Light Snow,0,2013-02-02 08:56:00
3:02 AM,1.4,-4.0,78,30.06,3.0,Calm,Calm,-,0.00,Snow,Light Snow,0,2013-02-02 09:02:00
3:14 AM,1.4,-2.2,85,30.06,5.0,Calm,Calm,-,0.00,Snow,Light Snow,0,2013-02-02 09:14:00
3:56 AM,1.0,-2.9,83,30.11,9.0,Calm,Calm,-,0.00,Snow,Light Snow,0,2013-02-02 09:56:00
4:11 AM,1.4,-2.2,85,30.05,7.0,Calm,Calm,-,0.00,Snow,Light Snow,0,2013-02-02 10:11:00
4:56 AM,2.1,-2.9,79,30.12,10.0,Calm,Calm,-,0.00,,Overcast,0,2013-02-02 10:56:00
5:56 AM,2.1,-4.0,76,30.12,10.0,Calm,Calm,-,0.00,,Overcast,0,2013-02-02 11:56:00
6:56 AM,2.1,-4.0,76,30.14,10.0,North,3.5,-,N/A,,Overcast,360,2013-02-02 12:56:00
7:56 AM,2.1,-4.9,72,30.16,10.0,North,5.8,-,N/A,,Overcast,350,2013-02-02 13:56:00
8:56 AM,1.4,-5.8,72,30.10,10.0,North,6.9,-,N/A,,Overcast,360,2013-02-02 14:56:00
9:56 AM,3.0,-6.0,66,30.17,10.0,North,6.9,-,N/A,,Mostly Cloudy,350,2013-02-02 15:56:00
10:56 AM,5.0,-6.0,61,30.17,10.0,Calm,Calm,-,N/A,,Clear,0,2013-02-02 16:56:00
11:56 AM,6.1,-6.0,58,30.15,10.0,North,4.6,-,N/A,,Clear,360,2013-02-02 17:56:00
12:56 PM,8.1,-6.9,51,30.14,10.0,Calm,Calm,-,N/A,,Clear,0,2013-02-02 18:56:00
1:56 PM,9.1,-4.9,53,30.13,10.0,WNW,5.8,-,N/A,,Clear,290,2013-02-02 19:56:00
2:56 PM,8.1,-4.9,56,30.13,10.0,West,4.6,-,N/A,,Clear,270,2013-02-02 20:56:00
3:56 PM,8.1,-4.9,56,30.12,10.0,WNW,5.8,-,N/A,,Clear,290,2013-02-02 21:56:00
4:56 PM,7.2,-6.0,55,30.13,10.0,Calm,Calm,-,N/A,,Clear,0,2013-02-02 22:56:00
6:56 PM,2.1,-4.0,76,30.12,10.0,Calm,Calm,-,N/A,,Partly Cloudy,0,2013-02-03 00:56:00
7:56 PM,-4.0,-6.9,87,30.12,10.0,Calm,Calm,-,N/A,,Clear,0,2013-02-03 01:56:00
8:56 PM,-6.0,-9.9,83,30.09,10.0,Calm,Calm,-,N/A,,Clear,0,2013-02-03 02:56:00
9:56 PM,-4.9,-8.9,83,30.09,10.0,Calm,Calm,-,N/A,,Mostly Cloudy,0,2013-02-03 03:56:00
10:56 PM,-2.9,-6.9,83,30.06,10.0,Calm,Calm,-,N/A,,Overcast,0,2013-02-03 04:56:00
11:56 PM,-2.2,-7.6,78,29.98,5.0,Calm,Calm,-,N/A,Snow,Light Snow,0,2013-02-03 05:56:00